When you browse on this site, cookies collect data to enhance your experience and personalize the content and advertising you see.
Visit our Privacy Policy to learn more. By continuing to use the site, you agree to this use of cookies and data.
  • In Hungary
  • List of Countries
  • For 7 days
  • Water Temperature
  • Satellite Maps
  • Weather Map
  • News
  • Weather Widgets
  • user-avatar
    Login

    Hourly Weather Kawagoe

    Today, 17 December, Monday

    Time Temperature Precipitation Wind Pressure Humidity
    00:00 +7°C° 0 mm 1 mps 758 mmHg 57%
    01:00 +7°C° 0 mm 1 mps 758 mmHg 58%
    02:00 +7°C° 0 mm 1 mps 757 mmHg 60%
    03:00 +7°C° 0 mm 1 mps 756 mmHg 60%
    04:00 +7°C° 0.3 mm 1 mps 756 mmHg 63%
    05:00 +7°C° 0.3 mm 1 mps 755 mmHg 67%
    06:00 +8°C° 0.3 mm 1 mps 755 mmHg 70%
    07:00 +8°C° 0.3 mm 1 mps 754 mmHg 71%
    08:00 +9°C° 0.3 mm 1 mps 754 mmHg 72%
    09:00 +10°C° 0 mm 1 mps 753 mmHg 78%
    10:00 +11°C° 0.1 mm 1 mps 752 mmHg 73%
    11:00 +13°C° 0.1 mm 1 mps 751 mmHg 67%
    12:00 +14°C° 0.1 mm 1 mps 751 mmHg 62%
    13:00 +14°C° 0 mm 1 mps 751 mmHg 61%
    14:00 +14°C° 0 mm 1 mps 751 mmHg 59%
    15:00 +14°C° 0 mm 2 mps 750 mmHg 62%
    16:00 +13°C° 0 mm 2 mps 750 mmHg 65%
    17:00 +12°C° 0 mm 1 mps 751 mmHg 68%
    18:00 +11°C° 0 mm 1 mps 751 mmHg 71%
    19:00 +11°C° 0.2 mm 1 mps 751 mmHg 71%
    20:00 +11°C° 0.2 mm 1 mps 752 mmHg 71%
    21:00 +10°C° 0.2 mm 1 mps 752 mmHg 71%
    22:00 +10°C° 0.1 mm 1 mps 752 mmHg 70%
    23:00 +10°C° 0.1 mm 1 mps 752 mmHg 69%

    Tomorrow, 18 December, Tuesday

    Time Temperature Precipitation Wind Pressure Humidity
    00:00 +9°C° 0.1 mm 1 mps 753 mmHg 69%
    01:00 +8°C° 0 mm 2 mps 753 mmHg 66%
    02:00 +8°C° 0 mm 2 mps 753 mmHg 64%
    03:00 +8°C° 0 mm 2 mps 753 mmHg 62%
    04:00 +7°C° 0 mm 2 mps 754 mmHg 60%
    05:00 +7°C° 0 mm 2 mps 754 mmHg 58%
    06:00 +7°C° 0 mm 3 mps 755 mmHg 56%
    07:00 +8°C° 0 mm 3 mps 755 mmHg 51%
    08:00 +8°C° 0 mm 3 mps 756 mmHg 47%
    09:00 +9°C° 0 mm 3 mps 757 mmHg 42%
    10:00 +10°C° 0 mm 3 mps 757 mmHg 39%
    11:00 +12°C° 0 mm 2 mps 757 mmHg 35%
    12:00 +13°C° 0 mm 2 mps 757 mmHg 31%
    13:00 +13°C° 0 mm 2 mps 757 mmHg 31%
    14:00 +13°C° 0 mm 2 mps 757 mmHg 31%
    15:00 +13°C° 0 mm 2 mps 757 mmHg 31%
    16:00 +12°C° 0 mm 2 mps 757 mmHg 34%
    17:00 +10°C° 0 mm 2 mps 758 mmHg 38%
    18:00 +9°C° 0 mm 2 mps 758 mmHg 41%
    19:00 +9°C° 0 mm 2 mps 758 mmHg 42%
    20:00 +9°C° 0 mm 2 mps 758 mmHg 44%
    21:00 +8°C° 0 mm 2 mps 758 mmHg 45%
    22:00 +8°C° 0 mm 2 mps 759 mmHg 45%
    23:00 +7°C° 0 mm 2 mps 759 mmHg 46%

    Day after tomorrow, 19 December, Wednesday

    Time Temperature Precipitation Wind Pressure Humidity
    00:00 +7°C° 0 mm 2 mps 759 mmHg 47%
    01:00 +7°C° 0 mm 2 mps 759 mmHg 48%
    02:00 +7°C° 0 mm 2 mps 759 mmHg 48%
    03:00 +6°C° 0 mm 2 mps 760 mmHg 49%
    04:00 +6°C° 0 mm 2 mps 760 mmHg 50%
    05:00 +6°C° 0 mm 2 mps 760 mmHg 50%
    06:00 +6°C° 0 mm 2 mps 760 mmHg 51%
    07:00 +8°C° 0 mm 1 mps 760 mmHg 47%
    08:00 +9°C° 0 mm 1 mps 760 mmHg 44%
    09:00 +9°C° 0 mm 1 mps 761 mmHg 41%
    10:00 +10°C° 0 mm 2 mps 760 mmHg 37%
    11:00 +12°C° 0 mm 2 mps 760 mmHg 34%
    12:00 +13°C° 0 mm 2 mps 759 mmHg 30%
    13:00 +13°C° 0 mm 3 mps 759 mmHg 30%
    14:00 +13°C° 0 mm 3 mps 758 mmHg 29%
    15:00 +13°C° 0 mm 3 mps 758 mmHg 29%
    16:00 +12°C° 0 mm 3 mps 758 mmHg 33%
    17:00 +12°C° 0 mm 3 mps 758 mmHg 37%
    18:00 +11°C° 0 mm 3 mps 759 mmHg 41%
    19:00 +10°C° 0 mm 3 mps 759 mmHg 45%
    20:00 +10°C° 0 mm 3 mps 759 mmHg 48%
    21:00 +9°C° 0 mm 3 mps 760 mmHg 52%
    22:00 +9°C° 0 mm 2 mps 760 mmHg 53%
    23:00 +8°C° 0 mm 2 mps 760 mmHg 54%

    20 December, Thursday

    Time Temperature Precipitation Wind Pressure Humidity
    00:00 +8°C° 0 mm 2 mps 761 mmHg 56%
    01:00 +7°C° 0 mm 2 mps 761 mmHg 56%
    02:00 +7°C° 0 mm 2 mps 761 mmHg 56%
    03:00 +7°C° 0 mm 2 mps 761 mmHg 56%
    04:00 +6°C° 0 mm 2 mps 762 mmHg 56%
    05:00 +7°C° 0 mm 1 mps 762 mmHg 56%
    06:00 +7°C° 0 mm 1 mps 763 mmHg 56%
    07:00 +7°C° 0 mm 2 mps 763 mmHg 52%
    08:00 +7°C° 0 mm 2 mps 763 mmHg 48%
    09:00 +8°C° 0 mm 2 mps 764 mmHg 45%
    10:00 +9°C° 0 mm 2 mps 763 mmHg 41%
    11:00 +12°C° 0 mm 2 mps 763 mmHg 37%
    12:00 +13°C° 0 mm 2 mps 763 mmHg 33%
    13:00 +13°C° 0 mm 2 mps 763 mmHg 33%
    14:00 +13°C° 0 mm 2 mps 763 mmHg 33%
    15:00 +13°C° 0 mm 1 mps 763 mmHg 33%
    16:00 +12°C° 0 mm 1 mps 764 mmHg 36%
    17:00 +11°C° 0 mm 1 mps 764 mmHg 39%
    18:00 +10°C° 0 mm 1 mps 765 mmHg 42%
    19:00 +10°C° 0 mm 1 mps 765 mmHg 43%
    20:00 +10°C° 0 mm 1 mps 765 mmHg 45%
    21:00 +9°C° 0 mm 1 mps 766 mmHg 47%
    22:00 +9°C° 0 mm 1 mps 766 mmHg 49%
    23:00 +8°C° 0 mm 2 mps 766 mmHg 51%

    21 December, Friday

    Time Temperature Precipitation Wind Pressure Humidity
    00:00 +7°C° 0 mm 2 mps 766 mmHg 53%
    01:00 +7°C° 0 mm 2 mps 766 mmHg 54%
    02:00 +7°C° 0 mm 2 mps 766 mmHg 55%
    03:00 +7°C° 0 mm 2 mps 766 mmHg 56%
    04:00 +7°C° 0 mm 2 mps 767 mmHg 56%
    05:00 +6°C° 0 mm 2 mps 767 mmHg 55%
    06:00 +6°C° 0 mm 2 mps 767 mmHg 55%
    07:00 +8°C° 0 mm 1 mps 767 mmHg 51%
    08:00 +9°C° 0 mm 1 mps 768 mmHg 48%
    09:00 +10°C° 0 mm 1 mps 768 mmHg 44%
    10:00 +11°C° 0 mm 1 mps 767 mmHg 42%
    11:00 +13°C° 0 mm 1 mps 767 mmHg 39%
    12:00 +14°C° 0 mm 1 mps 766 mmHg 37%
    13:00 +14°C° 0 mm 1 mps 766 mmHg 39%
    14:00 +14°C° 0 mm 2 mps 765 mmHg 41%
    15:00 +14°C° 0 mm 2 mps 765 mmHg 43%
    16:00 +13°C° 0 mm 1 mps 765 mmHg 47%
    17:00 +13°C° 0 mm 1 mps 765 mmHg 51%
    18:00 +12°C° 0 mm 1 mps 766 mmHg 55%
    19:00 +12°C° 0 mm 1 mps 765 mmHg 56%
    20:00 +11°C° 0 mm 1 mps 765 mmHg 57%
    21:00 +11°C° 0 mm 1 mps 765 mmHg 58%
    22:00 +11°C° 0 mm 1 mps 764 mmHg 60%
    23:00 +11°C° 0 mm 1 mps 764 mmHg 62%

    22 December, Saturday

    Time Temperature Precipitation Wind Pressure Humidity
    00:00 +11°C° 0 mm 1 mps 763 mmHg 64%
    01:00 +10°C° 0.1 mm 2 mps 763 mmHg 66%
    02:00 +10°C° 0.1 mm 2 mps 762 mmHg 67%
    03:00 +9°C° 0.1 mm 2 mps 762 mmHg 69%
    04:00 +9°C° 0 mm 2 mps 762 mmHg 70%
    05:00 +9°C° 0 mm 2 mps 761 mmHg 71%
    06:00 +9°C° 0 mm 2 mps 761 mmHg 72%
    07:00 +10°C° 0 mm 2 mps 761 mmHg 69%
    08:00 +12°C° 0 mm 2 mps 761 mmHg 66%
    09:00 +13°C° 0 mm 2 mps 761 mmHg 64%
    10:00 +14°C° 0 mm 2 mps 760 mmHg 60%
    11:00 +16°C° 0 mm 2 mps 759 mmHg 56%
    12:00 +17°C° 0 mm 2 mps 758 mmHg 52%
    13:00 +18°C° 0 mm 2 mps 758 mmHg 53%
    14:00 +18°C° 0 mm 2 mps 757 mmHg 54%
    15:00 +18°C° 0 mm 2 mps 757 mmHg 54%
    16:00 +17°C° 0.1 mm 2 mps 757 mmHg 57%
    17:00 +16°C° 0.1 mm 1 mps 757 mmHg 60%
    18:00 +15°C° 0.1 mm 1 mps 756 mmHg 63%
    19:00 +15°C° 0 mm 1 mps 756 mmHg 63%
    20:00 +15°C° 0 mm 1 mps 756 mmHg 64%
    21:00 +14°C° 0 mm 1 mps 755 mmHg 65%
    22:00 +14°C° 0 mm 1 mps 755 mmHg 66%
    23:00 +14°C° 0 mm 1 mps 755 mmHg 67%
    Show more